Showing default

YUNYAO-1 48, 63349

Orbit data source: Space-Track

YUNYAO-1 48, 63349 is a payload satellite owned by Yunyao yuhang (CN) in SSO that was launched on Fri, 21 Mar 2025 UTC via a GUSHENXING 1 launch vehicle from the Jiuquan Satellite Launch Center, China (JSC). Payload-class satellites include a variety of spacecraft equipped with specific instruments for various scientific and technological missions. These include communications satellites like Starlink; space stations such as the ISS; scientific satellites like the Hubble; Earth observation satellites from companies like Planet Labs, Umbra, and HawkEye 360; GPS; miniature CubeSats for education and research; and military/defense satellites.

Loading next visibility...
Identifier
63349, 2025-059F
Orbit
SSO
Country
Flag of CNCN / PRC
Related business
Manufacturer
Changguang WJ
Mission
Operational Commercial Meteo Radio Occ.
Bus & Motor
YY-1, Unknown motor
Mass
~50 kg wet, ~50 kg dry
Launch date (UTC)
2025-03-21 (1 year ago)
Launch vehicle
GUSHENXING 1
Launch site
Jiuquan Satellite Launch Center, China (JSC)
Object type
Payload
Rocket body
Debris
Shape & HBR
Box + 1 Pan, 0.5 m
Radar Cross Section
5.339 m², Medium (>0.1 m² and < 1m²)

Expand to show TLE details & history
Last TLE update: 3 hours ago

TLE from 3 hours ago
0 YUNYAO-1 48
1 63349U 25059F   26127.21688560  .00002463  00000-0  15106-3 0  9991
2 63349  97.6101 308.9491 0014068 304.0020  55.9872 15.11011226 62119
Epoch: 2026-05-07T05:12Z
TLE epoch observation values (Epoch: 2026-05-07T05:12:18.915Z)
Latitude
-0.00011°
Longitude
5.8041°
Altitude
530.757 km
Speed
7.6 km/s
True Right ascension
20h 35m 47s
True Declination
0° 00' 00"
Sunlit
Object was in daylight at epoch
Visualization orbit readout
Latitude
Unknown
Longitude
Unknown
Altitude
Unknown
Speed
Unknown
Apparent Right ascension
Unknown
Apparent Declination
Unknown
Sunlit
N/A
Visualization observer readout
Local Sidereal Time
16:19:15
Azimuth
Unknown
Elevation
Unknown
Doppler factor
Unknown
Orbital elements
Apogee altitude
539.82 km
Perigee altitude
520.383 km
Semi-major axis
6,908.238 km
Eccentricity
0.00141
Inclination
97.6101°
RAAN
308.9491°
Arg. of periapsis
304.002°
True anomaly
56.12096°
Mean anomaly
55.9872°
Eccentric anomaly
56.05407°
Mean motion
3.78 °/min
Orbital period
95.24 mins
BSTAR
0.00015106
Loading maneuver chart data...
Computing Atmospheric mass density...
Loading historical data...
Loading historical data...
Loading historical data...
Loading historical data...
Loading historical data...
Loading historical data...
Loading historical data...
Other satellites on launch #59 in the year 2025 (2025-03-21 UTC)

Documentation

Showing up to 5 results
|